Location: Vihti�l�
(61.3833°N, 23.0667°E)
Time: 13:01:25
(UTC+00:00)

EO 1 Delta rocket - Visible Passes

Search period start: 20 April 2021 00:00
Search period end: 30 April 2021 00:00
Orbit: 696 x 1792 km, 95.4° (Epoch: 19 April)

Date Brightness Start Highest point End Pass type
(mag) Time Alt. Az. Time Alt. Az. Time Alt. Az.
20 Apr 5.8 01:32:01 10° WSW 01:34:11 13° WNW 01:36:23 10° NW visible
20 Apr 5.6 21:46:15 10° ESE 21:50:04 26° NE 21:54:02 10° N visible
20 Apr 3.8 23:36:35 25° S 23:39:15 68° W 23:44:01 10° NNW visible
21 Apr 5.8 01:27:38 10° WSW 01:29:57 14° WNW 01:32:18 10° NW visible
21 Apr 5.6 21:42:05 10° ESE 21:45:53 26° NE 21:49:51 10° N visible
21 Apr 3.8 23:32:16 24° S 23:35:01 71° W 23:39:50 10° NNW visible
22 Apr 5.8 01:23:15 10° WSW 01:25:42 14° WNW 01:28:14 10° NW visible
22 Apr 5.7 21:37:57 10° ESE 21:41:42 25° NE 21:45:40 10° N visible
22 Apr 3.8 23:27:58 24° S 23:30:47 73° W 23:35:39 10° NNW visible
23 Apr 5.8 01:18:52 10° WSW 01:21:28 15° WNW 01:24:09 10° NW visible
23 Apr 5.7 21:33:47 10° ESE 21:37:31 25° NE 21:41:30 10° N visible
23 Apr 3.8 23:23:40 23° S 23:26:34 76° W 23:31:30 10° NNW visible
24 Apr 5.8 01:14:30 10° WSW 01:17:15 15° WNW 01:20:04 10° NW visible
24 Apr 5.7 21:29:38 10° ESE 21:33:21 24° NE 21:37:21 10° N visible
24 Apr 3.8 23:19:22 22° S 23:22:21 78° W 23:27:21 10° NNW visible
25 Apr 5.7 01:10:08 10° WSW 01:13:00 16° WNW 01:15:59 10° NW visible
25 Apr 5.8 21:25:29 10° ESE 21:29:11 24° NE 21:33:12 10° N visible
25 Apr 3.8 23:15:03 21° S 23:18:08 81° WSW 23:23:12 10° NNW visible
26 Apr 5.7 01:05:47 10° WSW 01:08:46 17° WNW 01:11:56 10° NW visible
26 Apr 5.8 21:21:20 10° ESE 21:25:01 23° NE 21:29:04 10° N visible
26 Apr 3.9 23:10:44 20° S 23:13:56 84° WSW 23:19:04 10° NNW visible
27 Apr 5.7 01:01:26 10° WSW 01:04:33 17° WNW 01:07:51 10° NNW visible
27 Apr 5.9 21:17:10 10° ESE 21:20:51 23° NE 21:24:55 10° N visible
27 Apr 3.9 23:06:26 20° SSE 23:09:43 86° WSW 23:14:56 10° NNW visible
28 Apr 5.7 00:57:04 10° WSW 01:00:18 18° WNW 01:03:47 10° NNW visible
28 Apr 5.9 21:13:01 10° ESE 21:16:43 23° NE 21:20:49 10° N visible
28 Apr 3.9 23:02:07 19° SSE 23:05:31 89° W 23:10:49 10° NNW visible
29 Apr 5.6 00:52:44 10° WSW 00:56:05 19° WNW 00:59:44 10° NNW visible
29 Apr 6.0 21:08:51 10° E 21:12:34 23° NE 21:16:43 10° N visible
29 Apr 4.0 22:57:49 18° SSE 23:01:19 88° ENE 23:06:42 10° NNW visible
